Time,TemperatureF,DewpointF,PressureIn,WindDirection,WindDirectionDegrees,WindSpeedMPH,WindSpeedGustMPH,Humidity,HourlyPrecipIn,Conditions,Clouds,dailyrainin,SoftwareType,DateUTC
2013-04-23 00:01:00,41.0,38.4,30.53,NNW,328,0.0,0.0,90,0.00,,BKN070,0.00,VWS V14.00,2013-04-23 04:01:00,
2013-04-23 00:06:00,40.8,38.2,30.53,NNW,328,0.0,0.0,90,0.00,,BKN070,0.00,VWS V14.00,2013-04-23 04:06:00,
2013-04-23 00:12:00,40.6,37.9,30.53,NNW,328,0.0,0.0,90,0.00,,BKN070,0.00,VWS V14.00,2013-04-23 04:12:00,
2013-04-23 00:17:00,40.3,37.8,30.53,NNW,328,0.0,0.0,90,0.00,,BKN070,0.00,VWS V14.00,2013-04-23 04:17:00,
2013-04-23 00:22:00,40.1,37.6,30.53,NNW,328,0.0,0.0,91,0.00,,BKN070,0.00,VWS V14.00,2013-04-23 04:22:00,
2013-04-23 00:27:00,40.0,37.6,30.52,NNW,328,0.0,0.0,91,0.00,,BKN070,0.00,VWS V14.00,2013-04-23 04:27:00,
2013-04-23 00:32:00,39.8,37.3,30.52,NNW,328,0.0,0.0,91,0.00,,BKN070,0.00,VWS V14.00,2013-04-23 04:32:00,
2013-04-23 00:37:00,39.7,37.2,30.52,NNW,328,0.0,0.0,91,0.00,,BKN070,0.00,VWS V14.00,2013-04-23 04:37:00,
2013-04-23 00:42:00,39.6,37.0,30.52,NNW,328,0.0,0.0,90,0.00,,BKN070,0.00,VWS V14.00,2013-04-23 04:42:00,
2013-04-23 00:47:00,39.5,36.9,30.52,NNW,328,0.0,0.0,90,0.00,,BKN070,0.00,VWS V14.00,2013-04-23 04:47:00,
2013-04-23 00:52:00,39.5,36.8,30.51,NNW,328,0.0,0.0,90,0.00,,BKN070,0.00,VWS V14.00,2013-04-23 04:52:00,
2013-04-23 00:58:00,39.4,36.7,30.51,NNW,328,0.0,0.0,90,0.00,,BKN070,0.00,VWS V14.00,2013-04-23 04:58:00,
2013-04-23 01:03:00,39.2,36.5,30.51,NNW,328,0.0,0.0,90,0.00,,FEW070,0.00,VWS V14.00,2013-04-23 05:03:00,
2013-04-23 01:08:00,39.2,36.5,30.51,NNW,328,0.0,0.0,90,0.00,,FEW070,0.00,VWS V14.00,2013-04-23 05:08:00,
2013-04-23 01:13:00,39.0,36.2,30.51,NNW,328,0.0,0.0,90,0.00,,FEW070,0.00,VWS V14.00,2013-04-23 05:13:00,
2013-04-23 01:18:00,38.9,36.1,30.51,NNW,328,0.0,0.0,90,0.00,,FEW070,0.00,VWS V14.00,2013-04-23 05:18:00,
2013-04-23 01:23:00,38.8,36.0,30.51,NNW,328,0.0,0.0,90,0.00,,FEW070,0.00,VWS V14.00,2013-04-23 05:23:00,
2013-04-23 01:28:00,38.7,36.0,30.50,NNW,328,0.0,0.0,90,0.00,,FEW070,0.00,VWS V14.00,2013-04-23 05:28:00,
2013-04-23 01:33:00,38.6,36.0,30.50,NNW,328,0.0,0.0,90,0.00,,FEW070,0.00,VWS V14.00,2013-04-23 05:33:00,
2013-04-23 01:38:00,38.5,35.8,30.50,NNW,328,0.0,0.0,90,0.00,,FEW070,0.00,VWS V14.00,2013-04-23 05:38:00,
2013-04-23 01:43:00,38.4,35.6,30.50,NNW,328,0.0,0.0,90,0.00,,FEW070,0.00,VWS V14.00,2013-04-23 05:43:00,
2013-04-23 01:48:00,38.2,35.3,30.50,NNW,328,0.0,0.0,89,0.00,,FEW070,0.00,VWS V14.00,2013-04-23 05:48:00,
2013-04-23 01:54:00,38.1,35.2,30.49,NNW,328,0.0,0.0,89,0.00,,FEW070,0.00,VWS V14.00,2013-04-23 05:54:00,
2013-04-23 01:59:00,38.0,35.1,30.49,NNW,328,0.0,0.0,89,0.00,,FEW070,0.00,VWS V14.00,2013-04-23 05:59:00,
2013-04-23 02:04:00,37.9,35.1,30.49,NNW,328,0.0,0.0,89,0.00,,BKN065,0.00,VWS V14.00,2013-04-23 06:04:00,
2013-04-23 02:09:00,37.7,34.9,30.49,NNW,328,0.0,0.0,90,0.00,,BKN065,0.00,VWS V14.00,2013-04-23 06:09:00,
2013-04-23 02:14:00,37.6,34.8,30.49,NNW,328,0.0,0.0,90,0.00,,BKN065,0.00,VWS V14.00,2013-04-23 06:14:00,
2013-04-23 02:19:00,37.4,34.7,30.49,NNW,328,0.0,0.0,90,0.00,,BKN065,0.00,VWS V14.00,2013-04-23 06:19:00,
2013-04-23 02:24:00,37.3,34.5,30.49,NNW,328,0.0,0.0,90,0.00,,BKN065,0.00,VWS V14.00,2013-04-23 06:24:00,
2013-04-23 02:29:00,37.2,34.3,30.48,NNW,328,0.0,0.0,89,0.00,,BKN065,0.00,VWS V14.00,2013-04-23 06:29:00,
2013-04-23 02:34:00,37.1,34.2,30.48,NNW,328,0.0,0.0,89,0.00,,BKN065,0.00,VWS V14.00,2013-04-23 06:34:00,
2013-04-23 02:39:00,37.0,34.0,30.48,NNW,328,0.0,0.0,89,0.00,,BKN065,0.00,VWS V14.00,2013-04-23 06:39:00,
2013-04-23 02:45:00,36.9,33.8,30.48,NNW,328,0.0,0.0,89,0.00,,BKN065,0.00,VWS V14.00,2013-04-23 06:45:00,
2013-04-23 02:50:00,36.9,33.9,30.47,NNW,328,0.0,0.0,89,0.00,,BKN065,0.00,VWS V14.00,2013-04-23 06:50:00,
2013-04-23 02:55:00,37.0,33.7,30.47,NNW,328,0.0,0.0,88,0.00,,BKN065,0.00,VWS V14.00,2013-04-23 06:55:00,
2013-04-23 03:00:00,37.1,33.4,30.47,North,1,0.0,6.8,86,0.00,,BKN065,0.00,VWS V14.00,2013-04-23 07:00:00,
2013-04-23 03:05:00,37.4,33.5,30.47,North,1,0.0,0.0,86,0.00,,SCT065,0.00,VWS V14.00,2013-04-23 07:05:00,
2013-04-23 03:10:00,37.5,33.6,30.46,North,1,0.0,0.0,86,0.00,,SCT065,0.00,VWS V14.00,2013-04-23 07:10:00,
2013-04-23 03:15:00,37.6,33.7,30.46,North,1,0.0,0.0,86,0.00,,SCT065,0.00,VWS V14.00,2013-04-23 07:15:00,
2013-04-23 03:20:00,37.5,33.6,30.46,North,1,0.0,0.0,86,0.00,,SCT065,0.00,VWS V14.00,2013-04-23 07:20:00,
2013-04-23 03:25:00,37.4,33.4,30.46,North,1,0.0,0.0,85,0.00,,SCT065,0.00,VWS V14.00,2013-04-23 07:25:00,
2013-04-23 03:30:00,37.4,33.4,30.46,North,1,0.0,0.0,85,0.00,,SCT065,0.00,VWS V14.00,2013-04-23 07:30:00,
2013-04-23 03:35:00,37.4,33.3,30.46,North,1,0.0,0.0,85,0.00,,SCT065,0.00,VWS V14.00,2013-04-23 07:35:00,
2013-04-23 03:41:00,37.3,33.4,30.46,North,1,0.0,0.0,86,0.00,,SCT065,0.00,VWS V14.00,2013-04-23 07:41:00,
2013-04-23 03:46:00,37.1,33.1,30.46,North,1,0.0,0.0,85,0.00,,SCT065,0.00,VWS V14.00,2013-04-23 07:46:00,
2013-04-23 03:51:00,37.0,33.1,30.46,North,1,0.0,0.0,86,0.00,,SCT065,0.00,VWS V14.00,2013-04-23 07:51:00,
2013-04-23 03:56:00,37.0,33.5,30.45,North,1,0.0,0.0,87,0.00,,SCT065,0.00,VWS V14.00,2013-04-23 07:56:00,
2013-04-23 04:01:00,37.1,33.5,30.45,North,1,0.0,0.0,87,0.00,,FEW065,0.00,VWS V14.00,2013-04-23 08:01:00,
2013-04-23 04:06:00,37.3,33.6,30.45,North,1,0.0,0.0,86,0.00,,FEW065,0.00,VWS V14.00,2013-04-23 08:06:00,
2013-04-23 04:11:00,37.4,33.3,30.45,North,1,0.0,0.0,85,0.00,,FEW065,0.00,VWS V14.00,2013-04-23 08:11:00,
2013-04-23 04:16:00,37.7,33.4,30.45,North,1,0.0,0.0,84,0.00,,FEW065,0.00,VWS V14.00,2013-04-23 08:16:00,
2013-04-23 04:21:00,37.8,33.5,30.44,North,1,0.0,0.0,84,0.00,,FEW065,0.00,VWS V14.00,2013-04-23 08:21:00,
2013-04-23 04:26:00,37.9,33.2,30.44,North,1,0.0,0.0,83,0.00,,FEW065,0.00,VWS V14.00,2013-04-23 08:26:00,
2013-04-23 04:32:00,38.0,33.5,30.44,North,1,0.0,0.0,84,0.00,,FEW065,0.00,VWS V14.00,2013-04-23 08:32:00,
2013-04-23 04:37:00,38.0,33.5,30.44,North,1,0.0,0.0,84,0.00,,FEW065,0.00,VWS V14.00,2013-04-23 08:37:00,
2013-04-23 04:42:00,38.1,33.6,30.44,North,1,0.0,0.0,84,0.00,,FEW065,0.00,VWS V14.00,2013-04-23 08:42:00,
2013-04-23 04:47:00,38.0,33.5,30.44,North,1,0.0,2.0,84,0.00,,FEW065,0.00,VWS V14.00,2013-04-23 08:47:00,
2013-04-23 04:52:00,38.0,33.3,30.44,North,1,0.0,0.0,83,0.00,,FEW065,0.00,VWS V14.00,2013-04-23 08:52:00,
2013-04-23 04:57:00,38.1,33.6,30.43,North,1,0.0,0.0,84,0.00,,FEW065,0.00,VWS V14.00,2013-04-23 08:57:00,
2013-04-23 05:02:00,38.1,33.5,30.43,North,1,0.0,0.0,83,0.00,,SCT250,0.00,VWS V14.00,2013-04-23 09:02:00,
2013-04-23 05:07:00,38.1,33.4,30.44,North,357,0.0,4.8,83,0.00,,SCT250,0.00,VWS V14.00,2013-04-23 09:07:00,
2013-04-23 05:12:00,38.2,33.4,30.43,North,357,0.0,0.0,83,0.00,,SCT250,0.00,VWS V14.00,2013-04-23 09:12:00,
2013-04-23 05:17:00,38.1,33.5,30.43,North,3,4.9,5.2,83,0.00,,SCT250,0.00,VWS V14.00,2013-04-23 09:17:00,
2013-04-23 05:22:00,38.2,33.3,30.43,North,3,0.0,0.0,82,0.00,,SCT250,0.00,VWS V14.00,2013-04-23 09:22:00,
2013-04-23 05:27:00,38.2,33.5,30.43,ENE,66,0.0,4.6,83,0.00,,SCT250,0.00,VWS V14.00,2013-04-23 09:27:00,
2013-04-23 05:33:00,38.2,33.5,30.43,ENE,66,0.0,0.0,83,0.00,,SCT250,0.00,VWS V14.00,2013-04-23 09:33:00,
2013-04-23 05:38:00,38.3,33.5,30.43,ENE,66,0.0,0.0,83,0.00,,SCT250,0.00,VWS V14.00,2013-04-23 09:38:00,
2013-04-23 05:43:00,38.4,33.5,30.43,NE,35,0.0,4.2,82,0.00,,SCT250,0.00,VWS V14.00,2013-04-23 09:43:00,
2013-04-23 05:48:00,38.4,33.8,30.43,NE,35,0.0,4.2,83,0.00,,SCT250,0.00,VWS V14.00,2013-04-23 09:48:00,
2013-04-23 05:53:00,38.4,33.5,30.43,NE,35,0.0,0.0,82,0.00,,SCT250,0.00,VWS V14.00,2013-04-23 09:53:00,
2013-04-23 05:58:00,38.5,33.7,30.42,North,350,0.0,5.3,83,0.00,,SCT250,0.00,VWS V14.00,2013-04-23 09:58:00,
2013-04-23 06:03:00,38.5,33.8,30.42,North,350,0.0,0.0,83,0.00,,BKN048,0.00,VWS V14.00,2013-04-23 10:03:00,
2013-04-23 06:08:00,38.6,33.9,30.43,North,350,0.0,0.0,83,0.00,,BKN048,0.00,VWS V14.00,2013-04-23 10:08:00,
2013-04-23 06:13:00,38.6,33.7,30.43,North,350,0.0,0.0,82,0.00,,BKN048,0.00,VWS V14.00,2013-04-23 10:13:00,
2013-04-23 06:19:00,38.7,34.0,30.43,North,350,0.0,0.0,83,0.00,,BKN048,0.00,VWS V14.00,2013-04-23 10:19:00,
2013-04-23 06:24:00,38.7,34.1,30.43,North,350,0.0,0.0,83,0.00,,BKN048,0.00,VWS V14.00,2013-04-23 10:24:00,
2013-04-23 06:29:00,38.8,34.1,30.42,North,350,0.0,0.0,83,0.00,,BKN048,0.00,VWS V14.00,2013-04-23 10:29:00,
2013-04-23 06:34:00,38.8,34.0,30.42,North,350,0.0,0.0,83,0.00,,BKN048,0.00,VWS V14.00,2013-04-23 10:34:00,
2013-04-23 06:39:00,38.8,34.2,30.42,North,350,0.0,0.0,83,0.00,,BKN048,0.00,VWS V14.00,2013-04-23 10:39:00,
2013-04-23 06:44:00,38.8,34.1,30.42,North,350,0.0,0.0,83,0.00,,BKN048,0.00,VWS V14.00,2013-04-23 10:44:00,
2013-04-23 06:49:00,38.9,34.2,30.42,North,350,0.0,0.0,83,0.00,,BKN048,0.00,VWS V14.00,2013-04-23 10:49:00,
2013-04-23 06:54:00,39.0,34.5,30.42,North,350,0.0,0.0,84,0.00,,BKN048,0.00,VWS V14.00,2013-04-23 10:54:00,
2013-04-23 06:59:00,39.1,34.6,30.42,North,350,0.0,0.0,84,0.00,,BKN048,0.00,VWS V14.00,2013-04-23 10:59:00,
2013-04-23 07:04:00,39.1,34.7,30.42,North,350,0.0,0.0,84,0.00,,SCT048,0.00,VWS V14.00,2013-04-23 11:04:00,
2013-04-23 07:09:00,39.0,34.6,30.42,East,82,0.0,5.7,84,0.00,,SCT048,0.00,VWS V14.00,2013-04-23 11:09:00,
2013-04-23 07:14:00,39.1,34.9,30.42,NNE,31,3.0,5.2,85,0.00,,SCT048,0.00,VWS V14.00,2013-04-23 11:14:00,
2013-04-23 07:20:00,39.1,35.0,30.42,NNW,339,0.0,5.8,85,0.00,,SCT048,0.00,VWS V14.00,2013-04-23 11:20:00,
2013-04-23 07:25:00,39.1,35.3,30.42,NNW,339,0.0,0.0,86,0.00,,SCT048,0.00,VWS V14.00,2013-04-23 11:25:00,
2013-04-23 07:30:00,39.1,35.6,30.42,NNW,339,0.0,0.0,87,0.00,,SCT048,0.00,VWS V14.00,2013-04-23 11:30:00,
2013-04-23 07:35:00,39.1,35.8,30.42,NE,34,0.0,4.3,88,0.00,,SCT048,0.00,VWS V14.00,2013-04-23 11:35:00,
2013-04-23 07:40:00,39.0,35.4,30.42,NNE,30,0.0,4.3,87,0.00,,SCT048,0.00,VWS V14.00,2013-04-23 11:40:00,
2013-04-23 07:45:00,39.0,35.6,30.42,West,277,0.0,5.2,88,0.00,,SCT048,0.00,VWS V14.00,2013-04-23 11:45:00,
2013-04-23 07:50:00,39.1,35.8,30.41,West,277,0.0,5.2,88,0.00,,SCT048,0.00,VWS V14.00,2013-04-23 11:50:00,
2013-04-23 07:55:00,39.1,35.7,30.41,West,277,0.0,0.0,88,0.00,,SCT048,0.00,VWS V14.00,2013-04-23 11:55:00,
2013-04-23 08:00:00,39.1,35.8,30.41,West,277,0.0,0.0,88,0.00,,SCT250,0.00,VWS V14.00,2013-04-23 12:00:00,
2013-04-23 08:05:00,39.1,35.5,30.41,West,277,0.0,0.0,87,0.00,,SCT250,0.00,VWS V14.00,2013-04-23 12:05:00,
2013-04-23 08:10:00,39.3,35.7,30.41,West,277,0.0,0.0,87,0.00,,SCT250,0.00,VWS V14.00,2013-04-23 12:10:00,
2013-04-23 08:15:00,39.4,36.0,30.41,West,277,0.0,0.0,88,0.00,,SCT250,0.00,VWS V14.00,2013-04-23 12:15:00,
2013-04-23 08:20:00,39.5,36.1,30.41,West,277,0.0,0.0,87,0.00,,SCT250,0.00,VWS V14.00,2013-04-23 12:20:00,
2013-04-23 08:25:00,39.6,36.5,30.41,West,277,0.0,0.0,88,0.00,,SCT250,0.00,VWS V14.00,2013-04-23 12:25:00,
2013-04-23 08:31:00,39.7,36.8,30.41,West,277,0.0,0.0,89,0.00,,SCT250,0.00,VWS V14.00,2013-04-23 12:31:00,
2013-04-23 08:36:00,39.7,37.0,30.40,ENE,66,0.0,6.5,90,0.00,,SCT250,0.00,VWS V14.00,2013-04-23 12:36:00,
2013-04-23 08:41:00,39.7,37.0,30.40,NE,37,0.0,3.0,90,0.00,,SCT250,0.00,VWS V14.00,2013-04-23 12:41:00,
2013-04-23 08:46:00,39.5,36.8,30.40,NNE,15,0.0,6.1,90,0.00,,SCT250,0.00,VWS V14.00,2013-04-23 12:46:00,
2013-04-23 08:51:00,39.6,37.0,30.40,NE,46,2.5,3.4,90,0.00,,SCT250,0.00,VWS V14.00,2013-04-23 12:51:00,
2013-04-23 08:56:00,39.6,36.9,30.40,East,82,0.0,6.2,90,0.00,,SCT250,0.00,VWS V14.00,2013-04-23 12:56:00,
2013-04-23 09:01:00,39.7,37.1,30.40,NNW,333,0.0,0.0,90,0.00,,BKN250,0.00,VWS V14.00,2013-04-23 13:01:00,
2013-04-23 09:06:00,39.8,37.2,30.39,NNW,333,0.0,0.0,90,0.00,,BKN250,0.00,VWS V14.00,2013-04-23 13:06:00,
2013-04-23 09:11:00,39.9,37.5,30.39,NNW,333,0.0,0.0,91,0.00,,BKN250,0.00,VWS V14.00,2013-04-23 13:11:00,
2013-04-23 09:16:00,40.0,37.7,30.39,NNW,333,0.0,0.0,91,0.00,,BKN250,0.00,VWS V14.00,2013-04-23 13:16:00,
2013-04-23 09:21:00,40.2,37.8,30.39,NNW,333,0.0,0.0,91,0.00,,BKN250,0.00,VWS V14.00,2013-04-23 13:21:00,
2013-04-23 09:27:00,40.2,38.0,30.39,NNW,333,0.0,0.0,92,0.00,,BKN250,0.00,VWS V14.00,2013-04-23 13:27:00,
2013-04-23 09:32:00,40.3,38.1,30.39,NNW,333,0.0,0.0,92,0.00,,BKN250,0.00,VWS V14.00,2013-04-23 13:32:00,
2013-04-23 09:37:00,40.2,38.0,30.39,NNW,333,0.0,0.0,92,0.00,,BKN250,0.00,VWS V14.00,2013-04-23 13:37:00,
2013-04-23 09:42:00,40.2,38.1,30.39,NNW,333,0.0,0.0,92,0.00,,BKN250,0.00,VWS V14.00,2013-04-23 13:42:00,
2013-04-23 09:47:00,40.5,38.5,30.39,NNW,333,0.0,0.0,92,0.00,,BKN250,0.00,VWS V14.00,2013-04-23 13:47:00,
2013-04-23 09:52:00,40.6,38.5,30.39,North,10,3.0,5.2,92,0.00,,BKN250,0.00,VWS V14.00,2013-04-23 13:52:00,
2013-04-23 09:57:00,40.9,38.7,30.39,NE,46,0.0,5.2,92,0.00,,BKN250,0.00,VWS V14.00,2013-04-23 13:57:00,
2013-04-23 10:02:00,41.1,38.8,30.39,NE,48,0.0,0.0,92,0.00,,FEW250,0.00,VWS V14.00,2013-04-23 14:02:00,
2013-04-23 10:07:00,41.2,38.8,30.39,NE,46,0.0,3.0,91,0.00,,FEW250,0.00,VWS V14.00,2013-04-23 14:07:00,
2013-04-23 10:13:00,41.2,38.8,30.39,NE,46,0.0,0.0,91,0.00,,FEW250,0.00,VWS V14.00,2013-04-23 14:13:00,
2013-04-23 10:18:00,41.4,39.1,30.39,NE,46,0.0,0.0,91,0.00,,FEW250,0.00,VWS V14.00,2013-04-23 14:18:00,
2013-04-23 10:23:00,41.4,39.2,30.39,NE,46,0.0,0.0,92,0.00,,FEW250,0.00,VWS V14.00,2013-04-23 14:23:00,
2013-04-23 10:28:00,41.4,39.5,30.39,North,357,0.0,5.4,93,0.00,,FEW250,0.00,VWS V14.00,2013-04-23 14:28:00,
2013-04-23 10:33:00,41.3,39.5,30.39,North,350,0.0,0.0,93,0.00,,FEW250,0.00,VWS V14.00,2013-04-23 14:33:00,
2013-04-23 10:38:00,41.2,39.5,30.38,North,350,0.0,3.3,94,0.00,,FEW250,0.00,VWS V14.00,2013-04-23 14:38:00,
2013-04-23 10:43:00,41.2,39.7,30.38,North,350,0.0,0.0,94,0.00,,FEW250,0.00,VWS V14.00,2013-04-23 14:43:00,
2013-04-23 10:48:00,41.0,39.5,30.38,WNW,298,0.0,6.2,94,0.00,,FEW250,0.00,VWS V14.00,2013-04-23 14:48:00,
2013-04-23 10:53:00,41.0,39.5,30.38,NW,308,0.0,5.0,94,0.00,,FEW250,0.00,VWS V14.00,2013-04-23 14:53:00,
2013-04-23 10:58:00,40.9,39.5,30.37,North,356,0.0,6.6,94,0.00,,FEW250,0.00,VWS V14.00,2013-04-23 14:58:00,
2013-04-23 11:04:00,41.0,39.5,30.37,North,356,0.0,0.0,94,0.00,,FEW250,0.00,VWS V14.00,2013-04-23 15:04:00,
2013-04-23 11:09:00,41.2,39.7,30.37,North,356,0.0,0.0,94,0.00,,FEW250,0.00,VWS V14.00,2013-04-23 15:09:00,
2013-04-23 11:14:00,41.3,39.7,30.37,NW,326,0.0,6.5,94,0.00,,FEW250,0.00,VWS V14.00,2013-04-23 15:14:00,
2013-04-23 11:19:00,41.3,39.7,30.36,NW,326,0.0,6.5,94,0.00,,FEW250,0.00,VWS V14.00,2013-04-23 15:19:00,
2013-04-23 11:24:00,41.7,40.1,30.36,NW,326,0.0,0.0,94,0.00,,FEW250,0.00,VWS V14.00,2013-04-23 15:24:00,
2013-04-23 11:29:00,41.8,40.2,30.36,NW,326,0.0,0.0,94,0.00,,FEW250,0.00,VWS V14.00,2013-04-23 15:29:00,
2013-04-23 11:34:00,41.9,40.1,30.36,NW,326,0.0,0.0,93,0.00,,FEW250,0.00,VWS V14.00,2013-04-23 15:34:00,
2013-04-23 11:39:00,42.1,40.2,30.35,NW,326,0.0,0.0,93,0.00,,FEW250,0.00,VWS V14.00,2013-04-23 15:39:00,
2013-04-23 11:44:00,42.4,40.4,30.35,NW,326,0.0,0.0,93,0.00,,FEW250,0.00,VWS V14.00,2013-04-23 15:44:00,
2013-04-23 11:49:00,42.8,40.8,30.35,NW,326,0.0,0.0,92,0.00,,FEW250,0.00,VWS V14.00,2013-04-23 15:49:00,
2013-04-23 11:55:00,42.9,40.6,30.35,North,10,0.0,5.2,92,0.00,,FEW250,0.00,VWS V14.00,2013-04-23 15:55:00,
2013-04-23 12:00:00,43.2,40.8,30.34,ENE,68,0.0,5.2,91,0.00,,FEW250,0.00,VWS V14.00,2013-04-23 16:00:00,
2013-04-23 12:05:00,43.5,40.9,30.34,ENE,68,0.0,0.0,91,0.00,,FEW250,0.00,VWS V14.00,2013-04-23 16:05:00,
2013-04-23 12:10:00,43.7,41.1,30.34,ENE,68,0.0,0.0,91,0.00,,FEW250,0.00,VWS V14.00,2013-04-23 16:10:00,
2013-04-23 12:15:00,44.0,41.3,30.34,ENE,68,0.0,0.0,90,0.00,,FEW250,0.00,VWS V14.00,2013-04-23 16:15:00,
2013-04-23 12:20:00,44.2,41.1,30.34,ENE,68,0.0,0.0,89,0.00,,FEW250,0.00,VWS V14.00,2013-04-23 16:20:00,
2013-04-23 12:25:00,44.3,41.3,30.33,ENE,68,0.0,0.0,89,0.00,,FEW250,0.00,VWS V14.00,2013-04-23 16:25:00,
2013-04-23 12:30:00,44.5,41.3,30.33,ENE,68,0.0,0.0,88,0.00,,FEW250,0.00,VWS V14.00,2013-04-23 16:30:00,
2013-04-23 12:35:00,44.5,41.1,30.33,ENE,68,0.0,0.0,88,0.00,,FEW250,0.00,VWS V14.00,2013-04-23 16:35:00,
2013-04-23 12:40:00,44.4,41.2,30.33,NNW,329,0.0,0.0,88,0.00,,FEW250,0.00,VWS V14.00,2013-04-23 16:40:00,
2013-04-23 12:46:00,44.5,41.0,30.33,NNW,333,0.0,6.5,88,0.00,,FEW250,0.00,VWS V14.00,2013-04-23 16:46:00,
2013-04-23 12:51:00,44.6,40.8,30.32,NNW,333,0.0,0.0,86,0.00,,FEW250,0.00,VWS V14.00,2013-04-23 16:51:00,
2013-04-23 12:56:00,44.5,40.7,30.32,NNW,333,0.0,0.0,86,0.00,,FEW250,0.00,VWS V14.00,2013-04-23 16:56:00,
2013-04-23 13:01:00,44.7,40.6,30.32,North,10,0.0,4.2,86,0.00,,FEW250,0.00,VWS V14.00,2013-04-23 17:01:00,
2013-04-23 13:06:00,44.6,40.8,30.31,North,10,0.0,4.2,86,0.00,,FEW250,0.00,VWS V14.00,2013-04-23 17:06:00,
2013-04-23 13:11:00,44.8,40.8,30.31,North,10,0.0,0.0,86,0.00,,FEW250,0.00,VWS V14.00,2013-04-23 17:11:00,
2013-04-23 13:16:00,45.1,40.9,30.31,North,10,0.0,0.0,85,0.00,,FEW250,0.00,VWS V14.00,2013-04-23 17:16:00,
2013-04-23 13:21:00,45.3,40.9,30.31,North,10,0.0,0.0,84,0.00,,FEW250,0.00,VWS V14.00,2013-04-23 17:21:00,
2013-04-23 13:26:00,45.6,41.0,30.30,North,10,0.0,0.0,84,0.00,,FEW250,0.00,VWS V14.00,2013-04-23 17:26:00,
2013-04-23 13:31:00,45.7,41.2,30.30,North,10,0.0,0.0,84,0.00,,FEW250,0.00,VWS V14.00,2013-04-23 17:31:00,
2013-04-23 13:37:00,45.7,40.8,30.30,NNW,343,0.0,5.3,83,0.00,,FEW250,0.00,VWS V14.00,2013-04-23 17:37:00,
2013-04-23 13:42:00,45.9,41.0,30.30,NNW,343,0.0,0.0,83,0.00,,FEW250,0.00,VWS V14.00,2013-04-23 17:42:00,
2013-04-23 13:47:00,46.2,41.1,30.29,NNW,343,0.0,0.0,82,0.00,,FEW250,0.00,VWS V14.00,2013-04-23 17:47:00,
2013-04-23 13:52:00,46.5,41.2,30.29,NNW,343,0.0,0.0,82,0.00,,FEW250,0.00,VWS V14.00,2013-04-23 17:52:00,
2013-04-23 13:57:00,46.8,41.5,30.28,NNW,343,0.0,0.0,82,0.00,,FEW250,0.00,VWS V14.00,2013-04-23 17:57:00,
2013-04-23 14:02:00,46.7,41.1,30.28,North,357,5.3,5.3,81,0.00,,FEW250,0.00,VWS V14.00,2013-04-23 18:02:00,
2013-04-23 14:07:00,46.8,41.6,30.28,NNW,332,0.0,6.3,82,0.00,,FEW250,0.00,VWS V14.00,2013-04-23 18:07:00,
2013-04-23 14:12:00,47.1,41.6,30.28,NNW,332,0.0,0.0,81,0.00,,FEW250,0.00,VWS V14.00,2013-04-23 18:12:00,
2013-04-23 14:17:00,47.1,41.8,30.28,ESE,105,0.0,7.6,82,0.00,,FEW250,0.00,VWS V14.00,2013-04-23 18:17:00,
2013-04-23 14:23:00,47.2,41.6,30.28,North,6,0.0,6.3,81,0.00,,FEW250,0.00,VWS V14.00,2013-04-23 18:23:00,
2013-04-23 14:28:00,47.5,41.9,30.27,North,6,0.0,6.3,81,0.00,,FEW250,0.00,VWS V14.00,2013-04-23 18:28:00,
2013-04-23 14:33:00,47.5,41.6,30.27,ENE,59,0.0,7.4,80,0.00,,FEW250,0.00,VWS V14.00,2013-04-23 18:33:00,
2013-04-23 14:38:00,47.8,41.8,30.27,NNE,27,0.0,7.4,80,0.00,,FEW250,0.00,VWS V14.00,2013-04-23 18:38:00,
2013-04-23 14:43:00,48.0,41.8,30.26,North,359,0.0,5.6,79,0.00,,FEW250,0.00,VWS V14.00,2013-04-23 18:43:00,
2013-04-23 14:48:00,48.2,42.0,30.26,North,359,0.0,5.6,79,0.00,,FEW250,0.00,VWS V14.00,2013-04-23 18:48:00,
2013-04-23 14:53:00,48.1,41.6,30.26,NE,52,0.0,8.1,78,0.00,,FEW250,0.00,VWS V14.00,2013-04-23 18:53:00,
2013-04-23 14:58:00,47.8,41.5,30.26,WNW,297,0.0,8.1,78,0.00,,FEW250,0.00,VWS V14.00,2013-04-23 18:58:00,
2013-04-23 15:03:00,48.0,42.0,30.26,WNW,297,0.0,0.0,80,0.00,,FEW250,0.00,VWS V14.00,2013-04-23 19:03:00,
2013-04-23 15:09:00,47.8,41.2,30.26,WNW,297,0.0,0.0,78,0.00,,FEW250,0.00,VWS V14.00,2013-04-23 19:09:00,
2013-04-23 15:14:00,47.9,41.7,30.26,WNW,297,0.0,0.0,79,0.00,,FEW250,0.00,VWS V14.00,2013-04-23 19:14:00,
2013-04-23 15:19:00,47.6,41.2,30.26,North,8,0.0,6.9,78,0.00,,FEW250,0.00,VWS V14.00,2013-04-23 19:19:00,
2013-04-23 15:24:00,47.5,41.3,30.26,North,357,7.0,7.5,79,0.00,,FEW250,0.00,VWS V14.00,2013-04-23 19:24:00,
2013-04-23 15:29:00,47.5,41.2,30.26,WNW,297,0.0,7.5,78,0.00,,FEW250,0.00,VWS V14.00,2013-04-23 19:29:00,
2013-04-23 15:34:00,47.5,41.5,30.25,North,4,0.0,8.1,79,0.00,,FEW250,0.00,VWS V14.00,2013-04-23 19:34:00,
2013-04-23 15:39:00,47.5,41.4,30.24,NNW,333,0.0,10.2,79,0.00,,FEW250,0.00,VWS V14.00,2013-04-23 19:39:00,
2013-04-23 15:45:00,47.7,41.5,30.24,NNW,333,0.0,0.0,79,0.00,,FEW250,0.00,VWS V14.00,2013-04-23 19:45:00,
2013-04-23 15:50:00,47.9,41.9,30.25,NNW,333,0.0,0.0,80,0.00,,FEW250,0.00,VWS V14.00,2013-04-23 19:50:00,
2013-04-23 15:55:00,47.9,41.5,30.24,NNW,340,0.0,9.7,78,0.00,,FEW250,0.00,VWS V14.00,2013-04-23 19:55:00,
2013-04-23 16:00:00,48.1,41.6,30.25,NNW,340,0.0,9.7,78,0.00,,FEW250,0.00,VWS V14.00,2013-04-23 20:00:00,
2013-04-23 16:05:00,48.1,41.7,30.25,NW,326,2.8,8.6,78,0.00,,FEW250,0.00,VWS V14.00,2013-04-23 20:05:00,
2013-04-23 16:10:00,48.1,41.8,30.25,NNE,17,4.3,8.6,79,0.00,,FEW250,0.00,VWS V14.00,2013-04-23 20:10:00,
2013-04-23 16:15:00,48.1,41.8,30.25,NNE,17,0.0,4.3,79,0.00,,FEW250,0.00,VWS V14.00,2013-04-23 20:15:00,
2013-04-23 16:20:00,48.0,41.6,30.25,East,87,0.0,0.0,78,0.00,,FEW250,0.00,VWS V14.00,2013-04-23 20:20:00,
2013-04-23 16:25:00,48.0,41.6,30.25,East,87,0.0,0.0,78,0.00,,FEW250,0.00,VWS V14.00,2013-04-23 20:25:00,
2013-04-23 16:31:00,48.2,41.9,30.24,North,3,5.6,6.5,79,0.00,,FEW250,0.00,VWS V14.00,2013-04-23 20:31:00,
2013-04-23 16:36:00,48.1,41.9,30.24,NNE,25,0.0,9.5,79,0.00,,FEW250,0.00,VWS V14.00,2013-04-23 20:36:00,
2013-04-23 16:41:00,48.1,41.9,30.24,NNW,332,0.0,0.0,79,0.00,,FEW250,0.00,VWS V14.00,2013-04-23 20:41:00,
2013-04-23 16:46:00,48.3,42.0,30.23,NNW,332,0.0,0.0,79,0.00,,FEW250,0.00,VWS V14.00,2013-04-23 20:46:00,
2013-04-23 16:51:00,48.3,41.9,30.23,NNW,332,0.0,0.0,78,0.00,,FEW250,0.00,VWS V14.00,2013-04-23 20:51:00,
2013-04-23 16:56:00,48.3,42.0,30.23,North,10,4.7,10.1,79,0.00,,FEW250,0.00,VWS V14.00,2013-04-23 20:56:00,
2013-04-23 17:01:00,48.5,41.9,30.23,North,7,0.0,0.0,78,0.00,,FEW250,0.00,VWS V14.00,2013-04-23 21:01:00,
2013-04-23 17:06:00,48.5,41.9,30.23,North,11,0.0,6.7,78,0.00,,FEW250,0.00,VWS V14.00,2013-04-23 21:06:00,
2013-04-23 17:11:00,48.5,41.8,30.23,NNW,333,0.0,6.0,78,0.00,,FEW250,0.00,VWS V14.00,2013-04-23 21:11:00,
2013-04-23 17:17:00,48.4,41.9,30.23,North,11,2.6,7.9,78,0.00,,FEW250,0.00,VWS V14.00,2013-04-23 21:17:00,
2013-04-23 17:22:00,48.4,42.0,30.23,North,11,0.0,0.0,78,0.00,,FEW250,0.00,VWS V14.00,2013-04-23 21:22:00,
2013-04-23 17:27:00,48.4,42.0,30.23,North,11,0.0,0.0,78,0.00,,FEW250,0.00,VWS V14.00,2013-04-23 21:27:00,
2013-04-23 17:32:00,48.5,42.1,30.23,North,350,0.0,0.0,78,0.00,,FEW250,0.00,VWS V14.00,2013-04-23 21:32:00,
2013-04-23 17:37:00,48.5,41.9,30.23,NNW,336,0.0,5.8,78,0.00,,FEW250,0.00,VWS V14.00,2013-04-23 21:37:00,
2013-04-23 17:42:00,48.4,41.9,30.23,NNW,336,0.0,0.0,78,0.00,,FEW250,0.00,VWS V14.00,2013-04-23 21:42:00,
2013-04-23 17:47:00,48.5,41.9,30.23,NNE,18,2.2,6.8,78,0.00,,FEW250,0.00,VWS V14.00,2013-04-23 21:47:00,
2013-04-23 17:52:00,48.4,41.9,30.22,NNE,13,0.0,5.7,78,0.00,,FEW250,0.00,VWS V14.00,2013-04-23 21:52:00,
2013-04-23 17:57:00,48.5,42.1,30.22,NNE,13,0.0,5.7,78,0.00,,FEW250,0.00,VWS V14.00,2013-04-23 21:57:00,
2013-04-23 18:02:00,48.6,42.1,30.22,NNE,13,0.0,0.0,78,0.00,,FEW250,0.00,VWS V14.00,2013-04-23 22:02:00,
2013-04-23 18:08:00,48.5,42.1,30.22,NNW,329,0.0,5.3,78,0.00,,FEW250,0.00,VWS V14.00,2013-04-23 22:08:00,
2013-04-23 18:13:00,48.3,41.9,30.21,NW,322,0.0,8.0,78,0.00,,FEW250,0.00,VWS V14.00,2013-04-23 22:13:00,
2013-04-23 18:18:00,48.3,42.1,30.21,North,3,0.0,8.0,79,0.00,,FEW250,0.00,VWS V14.00,2013-04-23 22:18:00,
2013-04-23 18:23:00,48.2,42.0,30.21,North,10,0.0,6.3,79,0.00,,FEW250,0.00,VWS V14.00,2013-04-23 22:23:00,
2013-04-23 18:28:00,48.2,42.0,30.21,NNE,22,0.0,7.7,79,0.00,,FEW250,0.00,VWS V14.00,2013-04-23 22:28:00,
2013-04-23 18:33:00,48.4,42.1,30.21,NNE,15,0.0,5.7,79,0.00,,FEW250,0.00,VWS V14.00,2013-04-23 22:33:00,
2013-04-23 18:38:00,48.6,42.3,30.21,NNE,15,0.0,5.7,79,0.00,,FEW250,0.00,VWS V14.00,2013-04-23 22:38:00,
2013-04-23 18:43:00,48.4,42.1,30.21,NW,326,0.0,8.6,79,0.00,,FEW250,0.00,VWS V14.00,2013-04-23 22:43:00,
2013-04-23 18:48:00,48.3,41.9,30.20,NW,326,0.0,8.6,78,0.00,,FEW250,0.00,VWS V14.00,2013-04-23 22:48:00,
2013-04-23 18:54:00,48.1,42.1,30.20,North,1,0.0,10.1,80,0.00,,FEW250,0.00,VWS V14.00,2013-04-23 22:54:00,
2013-04-23 18:59:00,48.0,41.8,30.20,NE,39,0.0,10.1,79,0.00,,FEW250,0.00,VWS V14.00,2013-04-23 22:59:00,
2013-04-23 19:04:00,48.0,41.9,30.19,NNE,22,2.7,6.2,79,0.00,,BKN250,0.00,VWS V14.00,2013-04-23 23:04:00,
2013-04-23 19:09:00,47.7,41.8,30.18,WSW,252,0.0,6.2,80,0.00,,BKN250,0.00,VWS V14.00,2013-04-23 23:09:00,
2013-04-23 19:14:00,47.7,41.8,30.18,WSW,252,0.0,0.0,80,0.00,,BKN250,0.00,VWS V14.00,2013-04-23 23:14:00,
2013-04-23 19:19:00,47.5,41.6,30.18,North,6,0.0,6.0,80,0.00,,BKN250,0.00,VWS V14.00,2013-04-23 23:19:00,
2013-04-23 19:24:00,47.5,41.7,30.18,West,277,0.0,0.0,80,0.00,,BKN250,0.00,VWS V14.00,2013-04-23 23:24:00,
2013-04-23 19:29:00,47.4,41.6,30.18,West,277,0.0,0.0,80,0.00,,BKN250,0.00,VWS V14.00,2013-04-23 23:29:00,
2013-04-23 19:34:00,47.4,41.7,30.18,NE,34,3.4,3.4,81,0.00,,BKN250,0.00,VWS V14.00,2013-04-23 23:34:00,
2013-04-23 19:40:00,47.2,41.7,30.19,ENE,69,0.0,6.2,81,0.00,,BKN250,0.00,VWS V14.00,2013-04-23 23:40:00,
2013-04-23 19:45:00,47.0,41.5,30.19,ENE,69,0.0,0.0,81,0.00,,BKN250,0.00,VWS V14.00,2013-04-23 23:45:00,
2013-04-23 19:50:00,46.9,41.5,30.18,ENE,69,0.0,0.0,81,0.00,,BKN250,0.00,VWS V14.00,2013-04-23 23:50:00,
2013-04-23 19:55:00,46.8,41.5,30.19,NE,35,0.0,6.9,82,0.00,,BKN250,0.00,VWS V14.00,2013-04-23 23:55:00,
2013-04-23 20:00:00,46.8,41.5,30.19,NE,35,0.0,6.9,82,0.00,,SCT250,0.00,VWS V14.00,2013-04-24 00:00:00,
2013-04-23 20:05:00,46.8,41.5,30.19,North,354,0.0,8.3,82,0.00,,SCT250,0.00,VWS V14.00,2013-04-24 00:05:00,
2013-04-23 20:10:00,46.7,41.4,30.19,North,354,0.0,8.3,82,0.00,,SCT250,0.00,VWS V14.00,2013-04-24 00:10:00,
2013-04-23 20:15:00,46.6,41.3,30.18,ENE,58,0.0,7.0,82,0.00,,SCT250,0.00,VWS V14.00,2013-04-24 00:15:00,
2013-04-23 20:20:00,46.6,41.4,30.19,ENE,58,0.0,7.0,82,0.00,,SCT250,0.00,VWS V14.00,2013-04-24 00:20:00,
2013-04-23 20:25:00,46.3,41.2,30.18,ENE,58,0.0,2.5,82,0.00,,SCT250,0.00,VWS V14.00,2013-04-24 00:25:00,
2013-04-23 20:30:00,46.1,41.1,30.18,ENE,58,0.0,0.0,82,0.00,,SCT250,0.00,VWS V14.00,2013-04-24 00:30:00,
2013-04-23 20:35:00,45.9,41.1,30.17,ENE,58,0.0,0.0,83,0.00,,SCT250,0.00,VWS V14.00,2013-04-24 00:35:00,
2013-04-23 20:41:00,45.7,40.9,30.17,ENE,58,0.0,0.0,83,0.00,,SCT250,0.00,VWS V14.00,2013-04-24 00:41:00,
2013-04-23 20:46:00,45.3,40.8,30.17,North,10,0.0,7.3,84,0.00,,SCT250,0.00,VWS V14.00,2013-04-24 00:46:00,
2013-04-23 20:51:00,45.2,40.8,30.16,NNE,28,0.0,0.0,85,0.00,,SCT250,0.00,VWS V14.00,2013-04-24 00:51:00,
2013-04-23 20:56:00,45.1,40.7,30.16,NNE,28,0.0,0.0,84,0.00,,SCT250,0.00,VWS V14.00,2013-04-24 00:56:00,
2013-04-23 21:01:00,45.0,40.7,30.15,NE,39,0.0,0.0,85,0.00,,SCT250,0.00,VWS V14.00,2013-04-24 01:01:00,
2013-04-23 21:06:00,44.8,40.6,30.15,North,1,0.0,7.5,85,0.00,,SCT250,0.00,VWS V14.00,2013-04-24 01:06:00,
2013-04-23 21:11:00,44.7,40.5,30.15,NE,56,0.0,0.0,85,0.00,,SCT250,0.00,VWS V14.00,2013-04-24 01:11:00,
2013-04-23 21:16:00,44.5,40.5,30.16,NE,56,0.0,0.0,86,0.00,,SCT250,0.00,VWS V14.00,2013-04-24 01:16:00,
2013-04-23 21:21:00,44.4,40.5,30.16,NE,37,0.0,5.7,86,0.00,,SCT250,0.00,VWS V14.00,2013-04-24 01:21:00,
2013-04-23 21:27:00,44.3,40.5,30.14,NE,56,0.0,9.6,86,0.00,,SCT250,0.00,VWS V14.00,2013-04-24 01:27:00,
2013-04-23 21:32:00,44.1,40.4,30.14,NE,56,0.0,0.0,87,0.00,,SCT250,0.00,VWS V14.00,2013-04-24 01:32:00,
2013-04-23 21:37:00,44.0,40.5,30.14,North,359,0.0,5.2,87,0.00,,SCT250,0.00,VWS V14.00,2013-04-24 01:37:00,
2013-04-23 21:42:00,43.9,40.3,30.14,NNE,20,3.5,8.1,87,0.00,,SCT250,0.00,VWS V14.00,2013-04-24 01:42:00,
2013-04-23 21:47:00,43.8,40.4,30.14,North,356,4.9,8.1,88,0.00,,SCT250,0.00,VWS V14.00,2013-04-24 01:47:00,
2013-04-23 21:52:00,43.7,40.3,30.14,NE,46,6.0,7.8,88,0.00,,SCT250,0.00,VWS V14.00,2013-04-24 01:52:00,
2013-04-23 21:57:00,43.7,40.3,30.14,North,8,0.0,7.8,88,0.00,,SCT250,0.00,VWS V14.00,2013-04-24 01:57:00,
2013-04-23 22:02:00,43.7,40.4,30.14,ENE,58,0.0,6.1,88,0.00,,SCT250,0.00,VWS V14.00,2013-04-24 02:02:00,
2013-04-23 22:08:00,43.6,40.3,30.14,ENE,58,0.0,6.1,88,0.00,,SCT250,0.00,VWS V14.00,2013-04-24 02:08:00,
2013-04-23 22:13:00,43.6,40.4,30.14,East,79,0.0,5.0,88,0.00,,SCT250,0.00,VWS V14.00,2013-04-24 02:13:00,
2013-04-23 22:18:00,43.4,40.4,30.14,East,79,0.0,5.0,89,0.00,,SCT250,0.00,VWS V14.00,2013-04-24 02:18:00,
2013-04-23 22:24:00,43.3,40.4,30.13,NNW,330,0.0,8.0,89,0.00,,SCT250,0.00,VWS V14.00,2013-04-24 02:24:00,
2013-04-23 22:28:00,43.3,40.3,30.13,NNW,330,0.0,8.0,89,0.00,,SCT250,0.00,VWS V14.00,2013-04-24 02:28:00,
2013-04-23 22:34:00,43.2,40.4,30.13,WNW,295,0.0,5.2,90,0.00,,SCT250,0.00,VWS V14.00,2013-04-24 02:34:00,
2013-04-23 22:39:00,43.2,40.2,30.12,WNW,295,0.0,5.2,89,0.00,,SCT250,0.00,VWS V14.00,2013-04-24 02:39:00,
2013-04-23 22:44:00,43.0,40.4,30.12,WNW,295,0.0,0.0,90,0.00,,SCT250,0.00,VWS V14.00,2013-04-24 02:44:00,
2013-04-23 22:49:00,42.9,40.2,30.12,WNW,295,0.0,3.4,90,0.00,,SCT250,0.00,VWS V14.00,2013-04-24 02:49:00,
2013-04-23 22:54:00,42.9,40.2,30.12,WNW,295,0.0,0.0,90,0.00,,SCT250,0.00,VWS V14.00,2013-04-24 02:54:00,
2013-04-23 22:59:00,42.8,40.1,30.12,WNW,295,0.0,0.0,90,0.00,,SCT250,0.00,VWS V14.00,2013-04-24 02:59:00,
2013-04-23 23:04:00,42.7,40.1,30.12,WNW,295,0.0,0.0,90,0.00,,SCT250,0.00,VWS V14.00,2013-04-24 03:04:00,
2013-04-23 23:09:00,42.7,40.2,30.12,WNW,295,0.0,0.0,91,0.00,,SCT250,0.00,VWS V14.00,2013-04-24 03:09:00,
2013-04-23 23:14:00,42.7,40.1,30.12,WNW,295,0.0,0.0,90,0.00,,SCT250,0.00,VWS V14.00,2013-04-24 03:14:00,
2013-04-23 23:19:00,42.7,40.1,30.12,West,271,0.0,7.1,90,0.00,,SCT250,0.00,VWS V14.00,2013-04-24 03:19:00,
2013-04-23 23:24:00,42.7,40.1,30.12,NNW,330,0.0,9.3,90,0.00,,SCT250,0.00,VWS V14.00,2013-04-24 03:24:00,
2013-04-23 23:30:00,42.6,40.0,30.12,North,4,0.0,9.3,91,0.00,,SCT250,0.00,VWS V14.00,2013-04-24 03:30:00,
2013-04-23 23:35:00,42.6,40.0,30.11,North,4,0.0,0.0,91,0.00,,SCT250,0.00,VWS V14.00,2013-04-24 03:35:00,
2013-04-23 23:41:00,42.5,40.0,30.11,North,4,0.0,0.0,91,0.00,,SCT250,0.00,VWS V14.00,2013-04-24 03:41:00,
2013-04-23 23:46:00,42.5,40.1,30.11,North,4,0.0,0.0,91,0.00,,SCT250,0.00,VWS V14.00,2013-04-24 03:46:00,
2013-04-23 23:51:00,42.5,40.0,30.11,North,4,0.0,0.0,91,0.00,,SCT250,0.00,VWS V14.00,2013-04-24 03:51:00,
2013-04-23 23:56:00,42.5,40.1,30.11,North,4,0.0,0.0,91,0.00,,SCT250,0.00,VWS V14.00,2013-04-24 03:56:00,